OPS 4682 DEB, 38441

Orbit data source: Space-Track

OPS 4682 DEB, 38441 is space debris in LEO originally from a launch on Sat, 03 Apr 1965 UTC launched from the Air Force Western Test Range (AFWTR). Debris objects in space refer to the collection of defunct objects orbiting the Earth. Examples of debris include non-operational satellites, rocket bodies, and fragments generated from explosions, collisions, or faulty payload assembly.

Loading next visibility...
Identifier
38441, 1965-027EW
Orbit
LEO
Country
Flag of USUS
Related business
Manufacturer
Unknown
Mission
Spacecraft
Bus & Motor
Unknown
Mass
Unknown
Launch date (UTC)
1965-04-03 (61 years ago)
Launch vehicle
Unknown
Launch site
Air Force Western Test Range (AFWTR)
Object type
Payload
Rocket body
Debris
Shape & HBR
Unknown shape, 0.1 m
Radar Cross Section
Small (<0.1 m²)

Expand to show TLE details & history
Last TLE update: 2 days ago

TLE from 2 days ago
0 OPS 4682 DEB
1 38441U 65027EW  26103.70932801  .00000461  00000-0  15880-2 0  9997
2 38441  90.2497   6.6472 0031213 351.4911   8.5676 12.96174915604065
Epoch: 2026-04-13T17:01Z
TLE epoch observation values (Epoch: 2026-04-13T17:01:25.940Z)
Latitude
0.00002°
Longitude
-90.60692°
Altitude
1,256.358 km
Speed
7.238 km/s
True Right ascension
00h 26m 35s
True Declination
0° 00' 00"
Sunlit
Object was in daylight at epoch
Visualization orbit readout
Latitude
Unknown
Longitude
Unknown
Altitude
Unknown
Speed
Unknown
Apparent Right ascension
Unknown
Apparent Declination
Unknown
Sunlit
N/A
Visualization observer readout
Local Sidereal Time
20:20:17
Azimuth
Unknown
Elevation
Unknown
Doppler factor
Unknown
Orbital elements
Apogee altitude
1,298.128 km
Perigee altitude
1,250.358 km
Semi-major axis
7,652.38 km
Eccentricity
0.00312
Inclination
90.2497°
RAAN
6.6472°
Arg. of periapsis
351.4911°
True anomaly
8.62109°
Mean anomaly
8.5676°
Eccentric anomaly
8.59432°
Mean motion
3.24226 °/min
Orbital period
111.03 mins
BSTAR
0.001588
Loading maneuver chart data...
Computing Atmospheric mass density...
Loading historical data...
Loading historical data...
Loading historical data...
Loading historical data...
Loading historical data...
Loading historical data...
Loading historical data...

Documentation

Showing up to 5 results
|